Vertical_Velocity
-0 1 -1 -1 -2 -0 3 1 -1 -1 4 -1 -2 0 2 6 -2 -2 -2 -2 1 -2 1 0 -0 0 0 0 0 -0 -0 -1 -1 -1 -0 -0 0 -1 -1 -1 -2 -1 -0 0 1 -0 0 -0 1
-0 -2 -2 -4 -0 -3 5 2 -5 2 -9 6 1 0 -0 -3 -2 -1 -2 -0 2 -1 -1 -0 -1 0 0 -2 -2 -1 -1 -1 0 -3 -1 0 -1 -1 -1 -2 0 1 -0 -1 1 1 0 1 0
1 -2 -3 -2 0 3 8 -2 -8 2 3 1 2 1 -1 -7 2 1 -3 -2 2 -2 -0 -0 0 -1 -2 0 0 -2 -1 -1 -0 1 -1 -3 -1 0 -1 -1 -1 0 0 0 -2 -2 -1 1 1
-2 -2 -3 -4 4 0 3 2 -5 -6 3 2 -1 2 -5 -3 -2 4 -3 -2 -3 -1 -1 -2 -0 -1 -0 -3 -3 -0 1 -0 -1 1 2 1 -2 -2 -1 -1 -1 -0 -1 0 0 2 1 -0 -1
-2 -3 -4 -2 6 0 0 1 -8 0 1 3 2 -1 -4 -1 1 3 -1 -1 -5 6 -1 -0 -1 -2 -0 -1 -0 -1 -2 0 1 0 -1 1 -0 -1 -1 1 0 -0 -2 -1 -0 0 -0 0 1
-4 -4 -4 1 3 2 2 -0 -2 4 0 -1 2 2 -14 1 -1 1 -2 -3 -8 5 1 -1 -1 -2 -1 0 -1 -0 -1 -0 -1 -1 -0 1 -0 1 0 -1 0 -0 1 -0 -1 -1 -0 0 -0
-0 -2 1 -1 1 -1 2 3 -6 3 1 2 3 -3 -8 -6 7 -2 -4 -3 -2 9 2 -3 -0 -2 -2 -2 -1 0 -0 0 -0 -1 -0 -1 -0 1 -1 -1 -1 -0 -1 -0 -0 -0 -1 -0 0
-0 -8 -3 -2 2 6 4 -1 -4 -3 5 -1 -1 8 -10 -0 4 3 -2 -3 -1 -4 4 -3 -2 1 -1 -2 -1 -1 -2 -2 -0 -2 1 -1 -1 -2 -2 -0 -0 -2 -2 -1 -1 -0 0 -1 1
-1 -12 -2 8 3 7 3 -1 -14 6 0 -3 2 7 -2 -1 5 3 -4 -1 -0 -2 -3 1 -2 -3 -0 -0 -1 -2 -1 -1 -1 -1 -1 -1 -1 -1 -3 -2 -0 0 -0 0 0 -1 0 -0 1
-3 -5 5 3 3 -9 -8 -9 -3 1 -2 1 5 1 2 1 -2 3 -3 -3 -1 -2 -3 -4 1 -3 -1 0 -2 -0 -1 -1 -1 -1 -0 -0 -1 0 -5 -1 1 -2 1 0 1 -1 -0 0 0
-1 3 6 4 -1 -4 0 1 5 -4 2 5 3 3 -5 -0 -1 -1 -2 -1 -0 -1 -2 -6 -4 -4 -2 1 -3 -1 -3 -1 -1 -1 -0 -1 -2 2 -0 0 -0 1 1 -1 1 -1 -1 -2 5
-8 0 4 3 -8 4 -1 -3 -3 0 6 -2 -3 0 -8 5 -0 2 -0 -5 0 -3 -1 -2 -2 -1 5 -3 -2 -2 -0 -0 -1 0 -4 -2 -1 -1 0 -0 -1 -0 -0 -0 2 -2 1 -1 -0
-3 2 -1 -1 -2 4 -7 -1 -1 -4 9 2 -6 -1 -2 -2 3 1 0 -1 -4 -4 -1 -1 -3 -3 -2 -2 -2 -0 -2 -2 -0 1 -1 0 1 -0 -2 1 0 -1 0 -2 0 -1 -0 0 0
-3 -2 -1 1 2 1 -4 1 -16 15 -4 -3 -4 1 1 -1 -0 -3 2 2 3 -5 -5 4 -3 -2 -7 1 0 -1 0 -3 4 1 -3 1 1 0 -0 -1 -0 0 -1 1 -1 -0 1 -0 1
5 6 -7 0 5 -1 -8 -7 4 2 -7 -6 -0 -3 2 -0 -2 3 1 1 -0 -1 -6 -2 1 -8 2 -4 -2 -4 3 1 2 1 2 1 1 -0 2 -4 -2 -2 -1 -1 -1 -1 -0 -1 0
4 -7 -8 8 -1 5 -14 22 -5 7 -12 -0 -3 -2 1 1 -1 -0 -1 -2 -0 3 -3 -5 -1 -2 -5 1 3 -7 -4 3 0 2 4 -2 2 2 1 -3 -1 -3 -1 0 -2 -1 -0 -0 0
-3 5 -2 -9 0 -3 -9 14 -6 1 -5 -4 -3 -2 -3 1 1 2 1 2 -3 0 0 -1 -2 1 -1 -7 8 -1 -9 -0 4 2 1 2 1 -1 -2 -0 -1 -3 -1 -1 -3 1 -1 -1 -0
-2 -2 -8 0 2 -1 -2 3 -1 -5 5 -7 -1 -2 -2 1 7 2 -2 -2 2 -4 -0 -0 -6 3 -3 -1 3 3 -4 5 2 -1 -2 4 3 -1 3 -1 -1 -1 -1 -3 -0 -1 -0 -1 -1
-1 0 0 1 -1 4 -4 -3 12 -5 2 2 -5 4 2 1 1 -5 -2 -2 -3 -0 -4 1 -3 3 -3 -6 -6 6 4 -11 4 1 3 3 9 1 1 -1 -1 0 -2 -1 -0 2 -2 -0 0
6 6 5 -0 -6 -10 2 1 1 3 -1 -1 2 1 1 -7 -4 0 -2 -2 -2 -0 -0 -3 -2 0 6 -5 -1 -5 -2 -4 6 -0 3 -2 7 -3 -0 1 2 0 -2 -0 -2 3 1 -0 -1
2 -1 -0 1 -3 1 -10 0 -5 -1 9 -0 1 -3 -4 1 -3 1 -0 -0 2 3 4 2 0 -0 -0 5 -10 -0 2 1 1 0 -5 5 3 -1 1 3 3 1 -6 -1 0 3 12 3 -2
0 -4 7 1 -1 -5 2 -27 -2 4 -1 4 7 -2 -3 -2 -1 -1 0 -2 -1 6 3 -0 2 5 -6 9 -9 -0 -1 2 2 1 -1 4 -3 2 -3 2 5 0 1 -2 1 0 2 1 1
-2 7 -2 -2 -1 -6 1 -18 14 7 4 0 3 6 6 -3 -2 -3 -1 -2 1 -0 7 4 -1 5 -1 7 -2 -2 1 4 -3 -0 4 4 4 3 3 0 0 3 0 1 1 0 -1 2 -1
1 1 -1 -3 -2 -14 15 -10 1 -3 3 11 -2 -0 4 -6 -6 -3 -3 2 2 -1 -0 6 0 2 6 1 -5 9 -2 6 2 2 -0 -3 2 2 2 2 -2 0 1 0 -0 -0 1 -0 -0
2 1 -4 -10 -9 -5 -6 -15 14 12 -2 2 7 -10 -4 -3 1 -5 -5 -2 0 2 5 -2 3 4 -0 -2 3 11 -6 4 3 4 1 -3 2 2 -1 2 4 0 0 -1 1 0 -0 1 -1
0 1 -5 -9 -7 -3 -6 -15 14 -8 5 12 1 6 -3 1 -7 -0 -2 -2 4 -0 -2 4 -4 6 -1 -4 9 -6 1 11 3 3 0 2 1 1 -0 4 0 2 2 1 2 0 -1 -1 -0
7 0 -3 -5 -2 -19 12 7 -6 1 -2 13 -9 -5 4 8 -1 -9 -2 2 3 2 -0 6 -7 8 5 5 -0 -15 11 9 5 1 3 3 2 -2 3 3 1 -0 2 1 0 1 -0 1 -1
-2 1 -3 -1 -10 -9 -0 2 -17 -3 -14 -10 -3 -4 -0 -0 -5 1 -4 0 -3 -2 5 6 -9 7 6 5 -15 1 9 7 1 5 2 1 -0 2 -0 0 2 -0 2 1 3 2 0 -0 1
-1 -0 -1 -5 3 -14 -9 8 -0 -8 -10 -6 -4 3 5 -5 -8 -2 5 -12 -4 -7 1 3 -2 -2 3 -12 -2 15 11 -2 -2 3 5 0 3 2 1 -0 -0 1 -0 3 0 1 -0 -0 -1
-1 -4 -2 -1 -6 5 -13 14 19 5 2 4 1 0 1 -2 1 -5 -2 -3 -3 5 2 6 1 2 -6 -4 12 8 2 1 5 1 2 3 1 3 1 3 2 -0 7 1 1 -0 2 0 -1
Height
5808 5810 5812 5814 5817 5818 5823 5826 5825 5828 5831 5832 5834 5837 5839 5840 5838 5842 5841 5844 5846 5846 5847 5848 5849 5851 5852 5852 5853 5854 5855 5855 5857 5857 5857 5858 5858 5858 5859 5859 5858 5858 5858 5858 5858 5858 5859 5860 5860
5802 5805 5807 5807 5811 5813 5821 5821 5819 5824 5822 5830 5831 5833 5835 5833 5836 5836 5839 5840 5843 5843 5845 5846 5847 5848 5849 5849 5850 5851 5852 5853 5854 5854 5854 5855 5855 5855 5855 5855 5855 5855 5855 5855 5855 5856 5856 5856 5857
5797 5798 5801 5802 5806 5813 5816 5814 5813 5817 5821 5824 5827 5829 5829 5826 5834 5834 5835 5836 5838 5839 5841 5842 5844 5845 5845 5845 5847 5847 5848 5849 5850 5852 5852 5852 5851 5852 5852 5851 5851 5851 5851 5852 5852 5853 5853 5853 5854
5791 5793 5796 5798 5805 5808 5810 5809 5808 5810 5816 5819 5820 5825 5823 5825 5829 5833 5830 5832 5833 5836 5837 5838 5839 5840 5841 5843 5844 5844 5844 5845 5846 5846 5848 5847 5848 5847 5848 5848 5847 5847 5847 5848 5848 5849 5849 5849 5849
5784 5788 5789 5793 5802 5804 5805 5804 5803 5808 5810 5813 5816 5818 5817 5822 5826 5827 5827 5828 5829 5832 5833 5834 5835 5836 5836 5838 5839 5840 5841 5841 5841 5842 5843 5843 5843 5843 5843 5844 5844 5844 5844 5845 5845 5845 5845 5845 5845
5778 5782 5784 5789 5798 5798 5799 5799 5799 5803 5805 5808 5813 5812 5809 5820 5819 5823 5823 5824 5824 5828 5829 5829 5830 5831 5832 5832 5833 5835 5835 5836 5837 5837 5838 5838 5839 5840 5840 5840 5840 5841 5841 5841 5842 5842 5841 5841 5841
5773 5776 5779 5784 5791 5792 5795 5796 5792 5798 5800 5803 5806 5808 5806 5809 5814 5816 5818 5818 5820 5823 5826 5825 5827 5828 5828 5829 5830 5830 5831 5831 5832 5833 5834 5834 5834 5835 5836 5836 5837 5838 5838 5838 5838 5838 5838 5838 5838
5767 5769 5772 5778 5784 5789 5791 5790 5785 5791 5796 5797 5800 5805 5799 5799 5810 5809 5811 5814 5815 5817 5821 5822 5823 5824 5826 5826 5827 5827 5827 5827 5828 5828 5829 5829 5830 5830 5830 5831 5832 5833 5834 5834 5834 5834 5834 5834 5834
5760 5762 5765 5775 5779 5784 5784 5781 5775 5787 5788 5791 5795 5800 5795 5797 5805 5805 5806 5808 5809 5811 5814 5818 5819 5819 5821 5822 5823 5823 5823 5823 5823 5824 5825 5825 5826 5826 5826 5827 5828 5829 5829 5830 5830 5830 5830 5830 5830
5752 5756 5761 5769 5772 5773 5773 5770 5774 5781 5782 5786 5788 5793 5790 5794 5797 5800 5800 5803 5804 5806 5808 5809 5815 5815 5816 5817 5818 5819 5819 5819 5820 5820 5821 5821 5822 5822 5822 5823 5824 5824 5825 5825 5825 5826 5825 5826 5826
5746 5750 5756 5760 5763 5765 5768 5768 5773 5773 5775 5781 5781 5784 5783 5789 5791 5794 5795 5796 5799 5800 5802 5804 5806 5810 5810 5812 5812 5814 5814 5815 5816 5816 5817 5817 5818 5818 5818 5818 5818 5818 5819 5820 5820 5820 5821 5820 5821
5739 5742 5747 5752 5754 5760 5762 5762 5764 5765 5771 5771 5773 5777 5777 5785 5787 5788 5789 5791 5792 5794 5796 5798 5799 5801 5805 5805 5807 5808 5809 5810 5811 5812 5812 5813 5813 5812 5813 5813 5813 5813 5814 5815 5815 5815 5816 5815 5815
5731 5734 5739 5743 5747 5754 5754 5754 5758 5759 5761 5769 5768 5771 5773 5779 5781 5782 5784 5786 5787 5788 5791 5792 5792 5793 5795 5800 5800 5802 5804 5804 5805 5806 5807 5807 5808 5808 5808 5808 5808 5808 5808 5809 5809 5809 5810 5810 5809
5721 5728 5731 5735 5741 5746 5748 5750 5750 5753 5759 5760 5761 5763 5768 5771 5774 5775 5778 5782 5782 5783 5783 5787 5786 5787 5788 5792 5794 5795 5797 5798 5800 5800 5801 5802 5802 5802 5802 5802 5802 5802 5802 5802 5802 5802 5803 5803 5803
5714 5722 5724 5727 5733 5737 5740 5743 5745 5749 5748 5754 5756 5757 5761 5764 5768 5771 5772 5774 5777 5777 5777 5778 5781 5781 5784 5783 5785 5786 5791 5791 5793 5794 5795 5795 5795 5795 5796 5795 5796 5796 5795 5796 5796 5796 5795 5795 5796
5708 5713 5719 5722 5724 5729 5732 5738 5740 5742 5744 5748 5750 5751 5755 5759 5762 5764 5766 5767 5770 5772 5772 5772 5775 5777 5777 5779 5781 5779 5781 5785 5786 5787 5788 5788 5788 5789 5789 5789 5789 5790 5789 5790 5789 5789 5789 5788 5788
5700 5705 5711 5713 5716 5722 5726 5730 5733 5734 5739 5741 5743 5745 5748 5751 5754 5757 5760 5762 5763 5765 5767 5766 5768 5771 5771 5772 5776 5775 5773 5776 5782 5780 5782 5783 5782 5782 5783 5782 5781 5782 5782 5782 5782 5782 5782 5781 5782
5693 5698 5702 5706 5710 5714 5719 5724 5728 5729 5733 5735 5737 5739 5741 5744 5747 5750 5752 5753 5754 5755 5758 5759 5759 5764 5764 5764 5767 5770 5769 5768 5774 5775 5775 5777 5776 5776 5777 5776 5775 5775 5775 5773 5774 5774 5775 5774 5773
5686 5690 5695 5700 5703 5708 5711 5716 5721 5723 5726 5730 5731 5732 5734 5737 5738 5739 5742 5744 5745 5747 5747 5751 5752 5756 5756 5756 5758 5763 5761 5760 5765 5768 5768 5769 5769 5769 5769 5769 5769 5768 5767 5766 5767 5767 5766 5766 5766
5681 5686 5690 5693 5697 5699 5704 5711 5714 5717 5720 5721 5724 5725 5726 5727 5728 5729 5732 5734 5736 5738 5740 5741 5742 5746 5750 5749 5751 5752 5751 5755 5757 5759 5760 5762 5764 5762 5762 5762 5761 5760 5760 5759 5759 5758 5758 5757 5756
5675 5680 5683 5688 5691 5695 5696 5704 5707 5710 5714 5714 5714 5715 5715 5717 5718 5721 5722 5723 5726 5728 5731 5733 5733 5734 5736 5742 5740 5742 5745 5749 5750 5751 5751 5754 5755 5755 5754 5754 5753 5753 5753 5752 5751 5750 5749 5748 5747
5671 5675 5679 5682 5685 5689 5692 5696 5702 5704 5705 5706 5705 5704 5704 5705 5707 5708 5709 5711 5711 5714 5716 5719 5722 5724 5724 5729 5730 5733 5736 5739 5742 5743 5744 5746 5746 5747 5746 5745 5745 5746 5746 5745 5743 5742 5741 5739 5738
5668 5672 5674 5677 5679 5683 5687 5688 5698 5697 5696 5694 5691 5692 5691 5691 5692 5693 5694 5696 5697 5698 5701 5705 5708 5713 5714 5718 5721 5725 5728 5731 5733 5735 5737 5738 5739 5738 5737 5739 5739 5738 5737 5736 5735 5733 5732 5730 5728
5664 5667 5669 5671 5674 5677 5679 5681 5690 5686 5684 5679 5675 5675 5674 5673 5675 5676 5678 5680 5682 5684 5685 5688 5692 5698 5703 5706 5711 5716 5721 5722 5724 5727 5729 5730 5729 5730 5731 5732 5731 5731 5729 5728 5726 5725 5723 5721 5718
5660 5662 5664 5666 5668 5671 5668 5672 5681 5676 5667 5664 5662 5659 5658 5657 5658 5660 5661 5664 5667 5669 5672 5673 5678 5683 5689 5694 5699 5705 5712 5713 5715 5718 5720 5721 5723 5723 5723 5723 5723 5722 5721 5719 5717 5716 5713 5711 5709
5655 5657 5658 5659 5660 5662 5661 5663 5665 5661 5658 5650 5648 5647 5648 5646 5644 5645 5648 5651 5654 5656 5658 5660 5664 5669 5674 5682 5687 5692 5701 5703 5706 5708 5711 5714 5715 5715 5715 5715 5714 5713 5712 5711 5709 5706 5704 5702 5699
5651 5651 5653 5653 5653 5652 5652 5653 5651 5648 5644 5641 5636 5632 5629 5628 5626 5628 5631 5635 5636 5638 5643 5646 5649 5654 5662 5669 5673 5681 5689 5694 5697 5699 5702 5705 5706 5707 5707 5707 5706 5705 5704 5702 5699 5697 5695 5692 5689
5643 5647 5648 5647 5645 5645 5644 5642 5639 5635 5630 5627 5620 5614 5610 5608 5609 5610 5614 5615 5618 5621 5627 5631 5636 5640 5646 5653 5661 5672 5679 5682 5686 5689 5693 5696 5698 5699 5699 5698 5698 5696 5696 5694 5691 5689 5686 5682 5678
5640 5641 5641 5640 5641 5636 5635 5634 5629 5625 5620 5614 5610 5605 5598 5592 5587 5591 5595 5594 5597 5602 5610 5616 5622 5626 5633 5639 5653 5663 5669 5673 5677 5681 5685 5688 5689 5690 5690 5690 5689 5689 5687 5685 5683 5679 5676 5671 5666
5635 5636 5635 5633 5632 5630 5629 5622 5623 5617 5610 5604 5598 5591 5584 5577 5575 5576 5573 5571 5574 5580 5586 5598 5606 5614 5621 5635 5645 5652 5658 5663 5669 5673 5676 5679 5681 5682 5682 5683 5682 5681 5678 5676 5673 5669 5665 5660 5655